Dewpoint
57 57 62 66 65 66 66 66 66 65 65 65 65 65 64 63 62 62 61 61 61 61 61 61 60 59 58 58 59 60 60 59
58 60 58 60 60 64 65 65 66 64 63 63 63 63 61 61 58 60 60 60 59 59 59 58 58 58 58 57 57 58 56 57
60 59 60 61 59 60 62 64 65 65 64 62 61 59 59 57 59 59 59 58 58 58 57 55 54 55 56 56 57 52 54 52
61 63 62 62 56 61 61 60 61 62 62 63 60 62 61 59 59 58 58 58 56 56 57 56 54 48 50 55 49 52 50 50
61 64 65 63 59 58 57 57 59 61 64 64 62 62 61 60 59 56 57 57 54 54 54 51 54 53 50 52 50 51 47 48
61 63 65 65 59 57 58 57 58 59 60 64 63 60 60 60 57 55 55 53 56 54 53 56 55 52 50 48 47 45 42 45
62 64 65 62 62 59 60 61 58 60 60 60 63 60 59 57 56 54 53 52 52 53 52 51 49 46 44 45 43 43 45 41
62 64 64 59 57 60 59 60 58 59 57 57 62 61 58 55 53 50 49 49 50 51 50 49 46 45 43 45 43 42 42 44
61 63 60 58 56 55 55 53 54 52 52 56 59 59 56 56 52 50 49 50 53 53 52 50 47 43 42 42 42 43 41 43
58 57 56 56 54 53 52 51 52 50 51 52 55 55 56 55 51 51 51 52 50 49 49 47 46 43 41 39 39 40 41 42
55 57 53 52 53 51 52 54 52 48 49 47 49 51 52 53 50 50 53 51 50 49 48 48 46 42 39 39 40 39 39 36
54 53 51 52 50 50 45 45 45 45 43 42 45 45 48 50 49 51 52 50 49 48 49 47 46 44 36 35 39 40 40 39
47 48 45 45 42 40 40 41 40 41 42 45 47 46 46 48 46 47 48 48 49 51 49 49 47 46 44 41 40 42 44 40
40 39 40 40 39 41 43 44 43 43 43 44 43 44 43 42 45 45 45 45 47 49 50 49 48 47 44 41 37 37 39 41
40 42 43 44 43 41 41 41 41 39 39 38 39 41 40 41 42 43 45 44 43 45 47 47 45 47 48 44 38 36 36 38
43 43 41 42 44 41 43 39 38 40 40 39 39 41 40 39 40 43 44 43 44 44 42 46 46 44 45 45 47 44 38 36
45 43 42 42 41 43 41 42 41 40 40 41 39 37 37 37 39 43 43 43 44 46 47 46 45 45 43 43 44 43 43 39
45 42 41 43 43 42 43 43 42 40 38 37 35 35 35 37 38 42 44 43 44 43 44 44 43 43 42 41 39 37 37 36
43 42 40 41 42 41 40 41 41 40 38 36 36 34 35 38 41 42 42 44 43 42 42 41 40 39 38 38 38 37 37 38
44 41 39 38 40 39 40 42 41 38 38 36 36 36 37 40 42 41 41 41 40 41 43 42 39 39 38 38 38 38 38 37
Lifted_Index
-2 -2 -2 -3 -2 -2 -3 -3 -3 -3 -2 -2 -2 -2 -1 -0 -0 0 0 0 1 1 1 1 2 2 2 2 1 0 -1 -2
-3 -3 -3 -3 -2 -2 -2 -2 -2 -2 -2 -1 -1 -1 -1 0 1 1 1 1 1 2 2 3 3 3 3 3 2 1 -0 -1
-4 -4 -3 -2 -2 -1 -1 -2 -2 -2 -2 -1 -1 -1 -1 0 1 1 2 2 2 3 3 4 4 4 4 4 3 2 2 1
-4 -4 -3 -2 -2 -1 -1 -2 -2 -2 -3 -2 -2 -2 -2 -0 1 1 2 2 3 3 3 4 4 4 4 4 4 3 3 3
-4 -4 -4 -3 -2 -2 -2 -2 -2 -2 -3 -3 -3 -2 -2 -1 -0 1 1 2 2 2 3 3 3 3 4 4 4 4 5 4
-5 -5 -5 -4 -3 -2 -2 -2 -2 -2 -3 -3 -3 -2 -2 -1 -0 1 1 2 2 2 2 3 3 4 5 6 6 6 6 6
-5 -5 -5 -4 -3 -2 -2 -2 -2 -2 -2 -2 -2 -2 -1 -0 1 1 2 2 3 3 3 3 5 6 7 7 8 8 8 8
-5 -5 -4 -3 -2 -1 -1 -1 -1 -1 -0 -1 -1 -1 -0 1 2 3 3 3 3 3 4 4 6 7 8 8 8 8 8 8
-5 -4 -3 -2 -1 -0 0 1 1 1 1 1 0 0 1 2 3 3 4 4 4 4 4 5 6 7 8 8 8 9 9 9
-4 -3 -2 -1 -0 1 1 2 2 2 3 2 2 2 2 2 3 3 4 4 4 4 4 5 5 6 7 8 8 8 8 9
-2 -2 -1 0 1 2 2 3 3 3 4 4 4 4 4 4 4 4 4 4 4 4 4 5 5 6 6 7 7 7 8 8
-1 -0 1 2 3 3 4 4 4 4 4 5 5 5 5 5 5 5 5 4 4 4 4 4 5 5 6 6 6 6 6 7
1 2 3 4 4 5 5 5 5 5 5 5 6 6 6 7 6 6 6 5 5 4 4 4 4 4 5 5 5 5 5 5
4 4 4 5 5 6 5 5 5 5 6 6 6 7 8 8 8 7 7 6 5 4 4 3 3 3 3 4 4 5 5 5
5 5 5 5 5 6 6 6 6 6 6 7 7 8 8 8 8 8 7 6 6 5 4 3 3 3 2 3 3 4 4 4
5 5 5 5 5 5 6 6 6 7 7 8 8 8 8 8 8 8 7 6 6 5 4 4 3 2 2 2 2 3 3 3
5 5 5 5 5 5 5 6 6 7 7 8 8 8 8 8 8 7 7 6 5 5 5 4 4 3 3 3 3 3 3 4
5 5 5 5 5 6 6 6 6 7 7 8 8 8 8 8 7 7 6 6 6 6 6 6 5 5 5 5 4 4 4 5
5 5 5 5 6 6 6 6 7 7 7 8 8 8 8 8 7 7 7 6 6 6 6 7 7 7 7 6 6 6 6 6
5 5 5 6 6 6 6 6 6 7 8 8 9 9 8 8 7 7 7 6 6 6 6 7 7 7 7 7 7 7 7 7